| time (UTC) | temp F | wind direction | speed MPH | gust MPH | rain 1hr in | rain 24hr in | rain mn in | humidity % | barometer mb |
| 20260503213920 | 67 | 213 | 4.0 | 8.0 | 0.00 | 0.00 | 0.00 | 30 | 1012.8 |
| 20260503213418 | 66 | 219 | 4.0 | 7.0 | 0.00 | 0.00 | 0.00 | 30 | 1013.0 |
| 20260503212914 | 66 | 216 | 6.0 | 11.0 | 0.00 | 0.00 | 0.00 | 31 | 1013.3 |
| 20260503212411 | 65 | 224 | 10.0 | 15.0 | 0.00 | 0.00 | 0.00 | 31 | 1013.1 |
| 20260503211909 | 66 | 210 | 6.0 | 12.0 | 0.00 | 0.00 | 0.00 | 31 | 1013.1 |
| 20260503211405 | 65 | 281 | 5.0 | 7.0 | 0.00 | 0.00 | 0.00 | 32 | 1013.1 |
| 20260503210900 | 66 | 273 | 3.0 | 5.0 | 0.00 | 0.00 | 0.00 | 31 | 1013.2 |
| 20260503210358 | 66 | 166 | 1.0 | 4.0 | 0.00 | 0.00 | 0.00 | 34 | 1013.2 |
| 20260503205853 | 66 | 232 | 8.0 | 8.0 | 0.00 | 0.00 | 0.00 | 32 | 1013.2 |
| 20260503205350 | 66 | 247 | 8.0 | 9.0 | 0.00 | 0.00 | 0.00 | 31 | 1013.4 |
| 20260503204846 | 65 | 151 | 1.0 | 7.0 | 0.00 | 0.00 | 0.00 | 37 | 1013.4 |
| 20260503204343 | 66 | 204 | 5.0 | 9.0 | 0.00 | 0.00 | 0.00 | 34 | 1013.6 |
| 20260503203840 | 66 | 323 | 3.0 | 9.0 | 0.00 | 0.00 | 0.00 | 36 | 1013.4 |
| 20260503203338 | 65 | 245 | 7.0 | 13.0 | 0.00 | 0.00 | 0.00 | 31 | 1013.4 |
| 20260503202835 | 67 | 233 | 4.0 | 12.0 | 0.00 | 0.00 | 0.00 | 36 | 1013.7 |
| 20260503202333 | 67 | 229 | 3.0 | 7.0 | 0.00 | 0.00 | 0.00 | 34 | 1013.7 |
| 20260503201831 | 65 | 169 | 7.0 | 11.0 | 0.00 | 0.00 | 0.00 | 33 | 1013.8 |
| 20260503201327 | 64 | 210 | 3.0 | 8.0 | 0.00 | 0.00 | 0.00 | 31 | 1013.8 |
| 20260503200825 | 64 | 342 | 2.0 | 13.0 | 0.00 | 0.00 | 0.00 | 31 | 1013.9 |
| 20260503200321 | 63 | 206 | 11.0 | 12.0 | 0.00 | 0.00 | 0.00 | 32 | 1013.8 |
| 20260503195819 | 63 | 202 | 4.0 | 6.0 | 0.00 | 0.00 | 0.00 | 34 | 1013.8 |
| 20260503195315 | 64 | 219 | 3.0 | 4.0 | 0.00 | 0.00 | 0.00 | 31 | 1013.9 |
| 20260503194812 | 64 | 284 | 9.0 | 13.0 | 0.00 | 0.00 | 0.00 | 33 | 1014.2 |
| 20260503194308 | 66 | 307 | 15.0 | 15.0 | 0.00 | 0.00 | 0.00 | 35 | 1013.9 |
| 20260503193804 | 63 | 280 | 7.0 | 9.0 | 0.00 | 0.00 | 0.00 | 34 | 1014.2 |
| 20260503193300 | 64 | 211 | 3.0 | 7.0 | 0.00 | 0.00 | 0.00 | 32 | 1014.1 |
| 20260503192756 | 65 | 249 | 5.0 | 7.0 | 0.00 | 0.00 | 0.00 | 32 | 1014.3 |
| 20260503192252 | 64 | 222 | 5.0 | 8.0 | 0.00 | 0.00 | 0.00 | 34 | 1014.2 |
| 20260503191748 | 64 | 210 | 2.0 | 6.0 | 0.00 | 0.00 | 0.00 | 35 | 1014.3 |
| 20260503191246 | 65 | 225 | 9.0 | 10.0 | 0.00 | 0.00 | 0.00 | 34 | 1014.4 |
| 20260503190742 | 64 | 257 | 3.0 | 11.0 | 0.00 | 0.00 | 0.00 | 33 | 1014.3 |
| 20260503190239 | 64 | 267 | 4.0 | 5.0 | 0.00 | 0.00 | 0.00 | 32 | 1014.4 |
| 20260503185736 | 63 | 290 | 2.0 | 10.0 | 0.00 | 0.00 | 0.00 | 31 | 1014.4 |
| 20260503185232 | 63 | 239 | 4.0 | 8.0 | 0.00 | 0.00 | 0.00 | 33 | 1014.7 |
| 20260503184727 | 62 | 280 | 7.0 | 9.0 | 0.00 | 0.00 | 0.00 | 32 | 1014.7 |
| 20260503184223 | 63 | 254 | 8.0 | 10.0 | 0.00 | 0.00 | 0.00 | 32 | 1014.7 |
| 20260503183720 | 64 | 203 | 5.0 | 9.0 | 0.00 | 0.00 | 0.00 | 35 | 1014.9 |
| 20260503183217 | 62 | 12 | 0.0 | 3.0 | 0.00 | 0.00 | 0.00 | 30 | 1014.7 |
| 20260503182716 | 65 | 324 | 2.0 | 7.0 | 0.00 | 0.00 | 0.00 | 33 | 1015.0 |
| 20260503182214 | 63 | 276 | 7.0 | 9.0 | 0.00 | 0.00 | 0.00 | 31 | 1015.0 |
| 20260503181710 | 63 | 207 | 5.0 | 9.0 | 0.00 | 0.00 | 0.00 | 32 | 1015.1 |
| 20260503181207 | 62 | 19 | 2.0 | 5.0 | 0.00 | 0.00 | 0.00 | 30 | 1015.3 |
| 20260503180703 | 62 | 230 | 3.0 | 9.0 | 0.00 | 0.00 | 0.00 | 30 | 1015.0 |
| 20260503180202 | 63 | 8 | 0.0 | 3.0 | 0.00 | 0.00 | 0.00 | 32 | 1015.0 |
| 20260503175658 | 63 | 290 | 4.0 | 8.0 | 0.00 | 0.00 | 0.00 | 31 | 1015.3 |
| 20260503175155 | 62 | 180 | 2.0 | 6.0 | 0.00 | 0.00 | 0.00 | 29 | 1015.1 |
| 20260503174651 | 62 | 216 | 2.0 | 5.0 | 0.00 | 0.00 | 0.00 | 32 | 1015.3 |
| 20260503174149 | 62 | 206 | 2.0 | 4.0 | 0.00 | 0.00 | 0.00 | 30 | 1015.4 |
| 20260503173644 | 62 | 301 | 5.0 | 6.0 | 0.00 | 0.00 | 0.00 | 29 | 1015.3 |
| 20260503173141 | 62 | 246 | 7.0 | 8.0 | 0.00 | 0.00 | 0.00 | 32 | 1015.1 |
| 20260503172638 | 61 | 232 | 3.0 | 5.0 | 0.00 | 0.00 | 0.00 | 31 | 1015.5 |
| 20260503172135 | 60 | 268 | 5.0 | 9.0 | 0.00 | 0.00 | 0.00 | 31 | 1015.4 |
| 20260503171631 | 61 | 226 | 5.0 | 11.0 | 0.00 | 0.00 | 0.00 | 33 | 1015.4 |
| 20260503171129 | 62 | 242 | 3.0 | 7.0 | 0.00 | 0.00 | 0.00 | 34 | 1015.4 |
| 20260503170626 | 60 | 23 | 2.0 | 4.0 | 0.00 | 0.00 | 0.00 | 33 | 1015.4 |
| 20260503170122 | 61 | 265 | 2.0 | 6.0 | 0.00 | 0.00 | 0.00 | 37 | 1015.5 |
| 20260503151012 | 57 | 180 | 0.0 | 2.0 | 0.00 | 0.00 | 0.00 | 43 | 1015.6 |
| 20260503150509 | 56 | 126 | 1.0 | 3.0 | 0.00 | 0.00 | 0.00 | 43 | 1015.4 |
| 20260503131356 | 44 | 112 | 4.0 | 11.0 | 0.00 | 0.00 | 0.00 | 52 | 1015.0 |
| 20260503130853 | 42 | 255 | 2.0 | 9.0 | 0.00 | 0.00 | 0.00 | 53 | 1015.0 |
| 20260503130350 | 42 | 96 | 17.0 | 17.0 | 0.00 | 0.00 | 0.00 | 55 | 1015.0 |
| 20260503110744 | 41 | 95 | 7.0 | 10.0 | 0.00 | 0.00 | 0.00 | 59 | 1015.0 |
| 20260503110241 | 40 | 93 | 13.0 | 13.0 | 0.00 | 0.00 | 0.00 | 60 | 1015.1 |
| 20260503100208 | 41 | 75 | 4.0 | 10.0 | 0.00 | 0.00 | 0.00 | 57 | 1015.4 |
| 20260503090132 | 41 | 84 | 6.0 | 8.0 | 0.00 | 0.00 | 0.00 | 58 | 1015.1 |
| 20260503081608 | 42 | 97 | 3.0 | 6.0 | 0.00 | 0.00 | 0.00 | 56 | 1015.4 |
| 20260503081105 | 42 | 99 | 9.0 | 9.0 | 0.00 | 0.00 | 0.00 | 57 | 1015.4 |
| 20260503080600 | 42 | 102 | 4.0 | 6.0 | 0.00 | 0.00 | 0.00 | 56 | 1015.5 |
| 20260503072539 | 43 | 194 | 1.0 | 10.0 | 0.00 | 0.00 | 0.00 | 54 | 1015.7 |
| 20260503072037 | 43 | 14 | 3.0 | 9.0 | 0.00 | 0.00 | 0.00 | 54 | 1015.7 |
| 20260503071533 | 43 | 81 | 2.0 | 8.0 | 0.00 | 0.00 | 0.00 | 54 | 1015.7 |
| 20260503071030 | 44 | 84 | 4.0 | 9.0 | 0.00 | 0.00 | 0.00 | 52 | 1015.7 |
| 20260503070526 | 44 | 55 | 5.0 | 9.0 | 0.00 | 0.00 | 0.00 | 54 | 1015.9 |
| 20260503054945 | 43 | 275 | 2.0 | 11.0 | 0.00 | 0.00 | 0.00 | 56 | 1016.0 |
| 20260503054441 | 44 | 87 | 6.0 | 10.0 | 0.00 | 0.00 | 0.00 | 55 | 1016.0 |
| 20260503053939 | 44 | 187 | 1.0 | 9.0 | 0.00 | 0.00 | 0.00 | 55 | 1016.1 |
| 20260503053437 | 43 | 95 | 3.0 | 10.0 | 0.00 | 0.00 | 0.00 | 57 | 1016.0 |
| 20260503052933 | 44 | 124 | 0.0 | 10.0 | 0.00 | 0.00 | 0.00 | 56 | 1016.1 |
| 20260503052431 | 44 | 63 | 5.0 | 12.0 | 0.00 | 0.00 | 0.00 | 55 | 1016.0 |
| 20260503051927 | 44 | 83 | 8.0 | 12.0 | 0.00 | 0.00 | 0.00 | 54 | 1016.1 |
| 20260503051423 | 44 | 30 | 3.0 | 10.0 | 0.00 | 0.00 | 0.00 | 54 | 1016.4 |
| 20260503050920 | 44 | 121 | 8.0 | 10.0 | 0.00 | 0.00 | 0.00 | 56 | 1016.2 |
| 20260503050416 | 45 | 98 | 8.0 | 13.0 | 0.00 | 0.00 | 0.00 | 53 | 1016.2 |
| 20260503045914 | 44 | 88 | 5.0 | 10.0 | 0.00 | 0.00 | 0.00 | 55 | 1016.4 |
| 20260503045411 | 45 | 83 | 5.0 | 9.0 | 0.00 | 0.00 | 0.00 | 54 | 1016.5 |
| 20260503044908 | 45 | 81 | 5.0 | 11.0 | 0.00 | 0.00 | 0.00 | 54 | 1016.4 |
| 20260503044405 | 45 | 99 | 4.0 | 12.0 | 0.00 | 0.00 | 0.00 | 53 | 1016.2 |
| 20260503043902 | 45 | 70 | 4.0 | 13.0 | 0.00 | 0.00 | 0.00 | 53 | 1016.4 |
| 20260503043359 | 46 | 101 | 2.0 | 9.0 | 0.00 | 0.00 | 0.00 | 53 | 1016.7 |
| 20260503042855 | 46 | 68 | 2.0 | 10.0 | 0.00 | 0.00 | 0.00 | 52 | 1016.6 |
| 20260503042351 | 46 | 65 | 2.0 | 17.0 | 0.00 | 0.00 | 0.00 | 54 | 1016.5 |
| 20260503041847 | 46 | 74 | 4.0 | 8.0 | 0.00 | 0.00 | 0.00 | 52 | 1016.6 |
| 20260503041345 | 46 | 96 | 6.0 | 10.0 | 0.00 | 0.00 | 0.00 | 52 | 1016.7 |
| 20260503040843 | 46 | 39 | 3.0 | 9.0 | 0.00 | 0.00 | 0.00 | 52 | 1016.7 |
| 20260503040340 | 47 | 16 | 3.0 | 13.0 | 0.00 | 0.00 | 0.00 | 51 | 1016.7 |
| 20260503035837 | 46 | 126 | 1.0 | 7.0 | 0.00 | 0.00 | 0.00 | 53 | 1016.6 |
| 20260503035334 | 46 | 110 | 4.0 | 8.0 | 0.00 | 0.00 | 0.00 | 52 | 1016.7 |
| 20260503034831 | 46 | 61 | 4.0 | 8.0 | 0.00 | 0.00 | 0.00 | 53 | 1016.5 |
| 20260503034328 | 47 | 79 | 3.0 | 8.0 | 0.00 | 0.00 | 0.00 | 52 | 1016.6 |
| 20260503033825 | 48 | 142 | 3.0 | 11.0 | 0.00 | 0.00 | 0.00 | 50 | 1016.6 |
| 20260503033323 | 48 | 74 | 3.0 | 11.0 | 0.00 | 0.00 | 0.00 | 51 | 1016.5 |
| 20260503032821 | 47 | 75 | 3.0 | 8.0 | 0.00 | 0.00 | 0.00 | 52 | 1016.7 |
| 20260503032320 | 48 | 79 | 0.0 | 7.0 | 0.00 | 0.00 | 0.00 | 52 | 1016.5 |
| 20260503031816 | 48 | 94 | 5.0 | 8.0 | 0.00 | 0.00 | 0.00 | 52 | 1016.6 |
| 20260503031314 | 48 | 122 | 7.0 | 10.0 | 0.00 | 0.00 | 0.00 | 52 | 1016.5 |
| 20260503030810 | 49 | 192 | 1.0 | 9.0 | 0.00 | 0.00 | 0.00 | 51 | 1016.5 |
| 20260503030307 | 49 | 107 | 11.0 | 11.0 | 0.00 | 0.00 | 0.00 | 51 | 1016.6 |
| 20260503025803 | 48 | 29 | 3.0 | 7.0 | 0.00 | 0.00 | 0.00 | 52 | 1016.5 |
| 20260503025301 | 49 | 117 | 3.0 | 10.0 | 0.00 | 0.00 | 0.00 | 52 | 1016.5 |
| 20260503024758 | 48 | 100 | 5.0 | 7.0 | 0.00 | 0.00 | 0.00 | 54 | 1016.5 |
| 20260503024255 | 49 | 0 | 0.0 | 3.0 | 0.00 | 0.00 | 0.00 | 52 | 1016.6 |
| 20260503023752 | 49 | 78 | 0.0 | 3.0 | 0.00 | 0.00 | 0.00 | 52 | 1016.4 |
| 20260503023249 | 50 | 83 | 1.0 | 2.0 | 0.00 | 0.00 | 0.00 | 50 | 1016.2 |
| 20260503022744 | 50 | 87 | 3.0 | 4.0 | 0.00 | 0.00 | 0.00 | 50 | 1016.5 |
| 20260503022239 | 51 | 94 | 5.0 | 5.0 | 0.00 | 0.00 | 0.00 | 50 | 1016.5 |
| 20260503021736 | 53 | 96 | 3.0 | 3.0 | 0.00 | 0.00 | 0.00 | 45 | 1016.5 |
| 20260503021232 | 54 | 98 | 2.0 | 3.0 | 0.00 | 0.00 | 0.00 | 44 | 1016.5 |
| 20260503020730 | 54 | 132 | 2.0 | 2.0 | 0.00 | 0.00 | 0.00 | 44 | 1016.5 |
| 20260503020228 | 55 | 346 | 0.0 | 1.0 | 0.00 | 0.00 | 0.00 | 43 | 1016.6 |
| 20260503015724 | 55 | 303 | 0.0 | 0.0 | 0.00 | 0.00 | 0.00 | 42 | 1016.5 |
| 20260503015221 | 56 | 8 | 0.0 | 0.0 | 0.00 | 0.00 | 0.00 | 41 | 1016.5 |
| 20260503014717 | 57 | 283 | 0.0 | 4.0 | 0.00 | 0.00 | 0.00 | 41 | 1016.5 |
| 20260503014215 | 57 | 0 | 1.0 | 3.0 | 0.00 | 0.00 | 0.00 | 39 | 1016.4 |
| 20260503013712 | 58 | 278 | 1.0 | 4.0 | 0.00 | 0.00 | 0.00 | 39 | 1016.4 |
| 20260503013210 | 58 | 255 | 2.0 | 5.0 | 0.00 | 0.00 | 0.00 | 39 | 1016.5 |
| 20260503012707 | 59 | 277 | 0.0 | 4.0 | 0.00 | 0.00 | 0.00 | 38 | 1016.6 |
| 20260503012204 | 59 | 254 | 0.0 | 6.0 | 0.00 | 0.00 | 0.00 | 38 | 1016.5 |
| 20260503011700 | 59 | 270 | 1.0 | 5.0 | 0.00 | 0.00 | 0.00 | 38 | 1016.5 |
| 20260503011157 | 59 | 330 | 3.0 | 6.0 | 0.00 | 0.00 | 0.00 | 37 | 1016.6 |
| 20260503010653 | 59 | 266 | 5.0 | 8.0 | 0.00 | 0.00 | 0.00 | 36 | 1016.5 |
| 20260503010151 | 60 | 291 | 4.0 | 9.0 | 0.00 | 0.00 | 0.00 | 37 | 1016.6 |
| 20260503005648 | 60 | 286 | 5.0 | 11.0 | 0.00 | 0.00 | 0.00 | 35 | 1016.6 |
| 20260503005145 | 61 | 301 | 7.0 | 12.0 | 0.00 | 0.00 | 0.00 | 34 | 1016.5 |
| 20260503004641 | 62 | 274 | 11.0 | 16.0 | 0.00 | 0.00 | 0.00 | 36 | 1016.6 |
| 20260503004140 | 62 | 255 | 6.0 | 11.0 | 0.00 | 0.00 | 0.00 | 36 | 1016.6 |
| 20260503003636 | 61 | 276 | 9.0 | 9.0 | 0.00 | 0.00 | 0.00 | 34 | 1016.6 |
| 20260503003133 | 60 | 307 | 5.0 | 10.0 | 0.00 | 0.00 | 0.00 | 38 | 1016.6 |
| 20260503002630 | 60 | 303 | 3.0 | 6.0 | 0.00 | 0.00 | 0.00 | 37 | 1016.6 |
| 20260503002127 | 61 | 243 | 3.0 | 10.0 | 0.00 | 0.00 | 0.00 | 39 | 1016.6 |
| 20260503001623 | 61 | 292 | 9.0 | 12.0 | 0.00 | 0.00 | 0.00 | 37 | 1016.6 |
| 20260503001120 | 62 | 292 | 4.0 | 6.0 | 0.00 | 0.00 | 0.00 | 37 | 1016.6 |
| 20260503000618 | 63 | 240 | 3.0 | 7.0 | 0.00 | 0.00 | 0.00 | 37 | 1016.6 |
| 20260503000115 | 64 | 255 | 3.0 | 7.0 | 0.00 | 0.00 | 0.00 | 34 | 1016.5 |
| 20260502235611 | 64 | 242 | 3.0 | 10.0 | 0.00 | 0.00 | 0.00 | 35 | 1016.6 |
| 20260502235109 | 64 | 317 | 5.0 | 8.0 | 0.00 | 0.00 | 0.00 | 34 | 1016.5 |
| 20260502234605 | 64 | 5 | 8.0 | 11.0 | 0.00 | 0.00 | 0.00 | 32 | 1016.6 |
| 20260502234103 | 65 | 348 | 1.0 | 7.0 | 0.00 | 0.00 | 0.00 | 35 | 1016.6 |
| 20260502233603 | 64 | 280 | 8.0 | 12.0 | 0.00 | 0.00 | 0.00 | 33 | 1016.5 |
| 20260502233100 | 63 | 355 | 3.0 | 7.0 | 0.00 | 0.00 | 0.00 | 34 | 1016.5 |
| 20260502232556 | 61 | 270 | 0.0 | 7.0 | 0.00 | 0.00 | 0.00 | 37 | 1016.7 |
| 20260502232054 | 61 | 276 | 2.0 | 7.0 | 0.00 | 0.00 | 0.00 | 37 | 1016.6 |
| 20260502231550 | 61 | 311 | 4.0 | 9.0 | 0.00 | 0.00 | 0.00 | 39 | 1016.7 |
| 20260502231048 | 64 | 282 | 3.0 | 9.0 | 0.00 | 0.00 | 0.00 | 38 | 1016.7 |
| 20260502230546 | 64 | 274 | 4.0 | 11.0 | 0.00 | 0.00 | 0.00 | 38 | 1016.8 |
| 20260502230045 | 61 | 281 | 4.0 | 7.0 | 0.00 | 0.00 | 0.00 | 39 | 1016.8 |
| 20260502225540 | 64 | 278 | 6.0 | 10.0 | 0.00 | 0.00 | 0.00 | 35 | 1016.8 |
| 20260502225037 | 66 | 230 | 4.0 | 9.0 | 0.00 | 0.00 | 0.00 | 32 | 1017.0 |
| 20260502224533 | 66 | 308 | 5.0 | 15.0 | 0.00 | 0.00 | 0.00 | 34 | 1016.8 |
| 20260502224030 | 65 | 338 | 6.0 | 7.0 | 0.00 | 0.00 | 0.00 | 34 | 1017.0 |
| 20260502223528 | 63 | 232 | 2.0 | 7.0 | 0.00 | 0.00 | 0.00 | 37 | 1017.0 |
| 20260502223026 | 66 | 285 | 6.0 | 8.0 | 0.00 | 0.00 | 0.00 | 34 | 1017.1 |
| 20260502222523 | 64 | 298 | 5.0 | 11.0 | 0.00 | 0.00 | 0.00 | 33 | 1017.0 |
| 20260502222020 | 65 | 205 | 7.0 | 9.0 | 0.00 | 0.00 | 0.00 | 33 | 1017.1 |
| 20260502221515 | 64 | 262 | 4.0 | 8.0 | 0.00 | 0.00 | 0.00 | 34 | 1017.0 |
| 20260502221013 | 62 | 213 | 3.0 | 9.0 | 0.00 | 0.00 | 0.00 | 36 | 1017.2 |
| 20260502220508 | 62 | 231 | 3.0 | 9.0 | 0.00 | 0.00 | 0.00 | 35 | 1017.4 |
| 20260502220005 | 63 | 211 | 6.0 | 10.0 | 0.00 | 0.00 | 0.00 | 36 | 1017.4 |
| 20260502215503 | 64 | 285 | 5.0 | 11.0 | 0.00 | 0.00 | 0.00 | 36 | 1017.6 |
| 20260502214959 | 63 | 300 | 1.0 | 2.0 | 0.00 | 0.00 | 0.00 | 36 | 1017.8 |
| 20260502214456 | 61 | 185 | 1.0 | 5.0 | 0.00 | 0.00 | 0.00 | 35 | 1017.7 |
| 20260502213954 | 61 | 27 | 3.0 | 4.0 | 0.00 | 0.00 | 0.00 | 38 | 1017.7 |